Tracking 19199 objects as of 25-Jun-2018
HD Live streaming from Space Station
objects crossing your sky now

FENGYUN 1C DEB

Track FENGYUN 1C DEB now!
10-day predictions


NORAD ID: 38510
Int'l Code: 1999-025ESV
Perigee: 798.1 km
Apogee: 948.7 km
Inclination: 98.9 °
Period: 102.3 minutes
Semi major axis: 7244 km
RCS: 0.0043 m2 (small)
Launch date: May 10, 1999
Source: People's Republic of China (PRC)
Launch site: Taiyaun Space Center, China (TSC)

Note: This is SATELLITE DEBRIS
aabbcc
Your satellite tracking list
Your tracking list is empty




NASA's NSSDC Master Catalog

Two Line Element Set (TLE):
1 38510U 99025ESV 18174.94285124  .00000265  00000-0  17350-3 0  9990
2 38510  98.8693 231.9760 0103944 316.1637  43.1317 14.07998920502283
Source of the keplerian elements: AFSPC